Location: Great Falls
(47.5000°N, 111.3000°W)
Time: 06:11:44
(UTC-06:00)

ISS - Pass Details

Date: 23 April 2025
Orbit: 416 x 420 km, 51.6° (Epoch: 15 May)

Event Time Altitude Azimuth Distance (km) Brightness Sun altitude
Exits shadow 05:01:16 21° 210° (SSW) 995 -2.4 -12.8°
Maximum altitude 05:03:09 45° 147° (SSE) 581 -3.1 -12.5°
Drops below altitude 10° 05:06:23 10° 74° (ENE) 1,497 0.3 -12.1°
Sets 05:08:32 0° 67° (ENE) 2,364 1.9 -11.8°
